EW1440 Weather Reports


Display with metric or nautical units.
time (UTC)temp
F
wind
direction
speed
MPH
gust
MPH
rain 1hr
in
rain 24hr
in
rain mn
in
humidity
%
barometer
mb
20260510160533 83 112 7.0 14.0 0.00 0.00 0.00 70 1013.5
20260510160045 82 192 6.0 11.0 0.00 0.00 0.00 69 1013.4
20260510155535 83 180 6.0 11.0 0.00 0.02 0.00 68 1013.4
20260510155034 82 178 6.0 11.0 0.00 0.02 0.00 70 1013.3
20260510154552 81 230 4.0 10.0 0.00 0.02 0.00 71 1013.4
20260510154036 82 121 4.0 10.0 0.00 0.02 0.00 72 1013.4
20260510153533 81 149 6.0 10.0 0.00 0.02 0.00 72 1013.3
20260510153048 81 214 4.0 10.0 0.00 0.02 0.00 73 1013.2
20260510152534 80 100 2.0 9.0 0.00 0.02 0.00 74 1013.2
20260510152033 80 108 3.0 9.0 0.00 0.02 0.00 76 1013.2
20260510151557 79 144 1.0 7.0 0.00 0.02 0.00 76 1013.2
20260510151032 79 112 3.0 7.0 0.00 0.02 0.00 78 1013.2
20260510150535 78 108 1.0 7.0 0.00 0.02 0.00 79 1013.1
20260510150051 78 133 2.0 7.0 0.00 0.02 0.00 80 1013.1
20260510145530 78 97 3.0 6.0 0.00 0.02 0.00 80 1013.0
20260510145030 78 56 2.0 6.0 0.00 0.02 0.00 81 1013.0
20260510144602 77 96 2.0 6.0 0.00 0.02 0.00 81 1013.0
20260510144034 77 124 3.0 7.0 0.00 0.02 0.00 81 1013.0
20260510143530 76 78 2.0 7.0 0.00 0.02 0.00 82 1013.1
20260510143056 76 134 2.0 6.0 0.00 0.02 0.00 81 1013.0
20260510142533 76 115 2.0 7.0 0.00 0.02 0.00 81 1013.0
20260510142031 76 178 3.0 7.0 0.00 0.02 0.00 83 1013.0
20260510141610 75 195 3.0 7.0 0.00 0.02 0.00 83 1013.1
20260510141033 75 114 2.0 7.0 0.00 0.02 0.00 84 1013.1
20260510140533 74 143 1.0 7.0 0.00 0.02 0.00 85 1013.1
20260510140047 74 217 2.0 6.0 0.00 0.02 0.00 86 1013.0
20260510135531 73 163 2.0 6.0 0.00 0.02 0.00 89 1013.1
20260510135034 72 251 3.0 7.0 0.00 0.02 0.00 93 1013.1
20260510134548 70 183 4.0 7.0 0.00 0.02 0.00 93 1013.0
20260510134030 70 164 3.0 6.0 0.00 0.02 0.00 93 1012.9
20260510133533 69 226 2.0 5.0 0.00 0.02 0.00 93 1012.9
20260510133048 68 177 2.0 5.0 0.00 0.02 0.00 93 1012.9
20260510132532 68 91 0.0 3.0 0.00 0.02 0.00 93 1012.8
20260510132036 67 0 0.0 4.0 0.00 0.02 0.00 93 1012.7
20260510131553 67 163 1.0 4.0 0.00 0.02 0.00 93 1012.5
20260510131034 67 96 0.0 4.0 0.00 0.02 0.00 93 1012.6
20260510130533 66 0 0.0 0.0 0.00 0.02 0.00 93 1012.6
20260510130046 66 0 0.0 0.0 0.00 0.02 0.00 92 1012.5
20260510125534 65 0 0.0 0.0 0.00 0.02 0.00 92 1012.4
20260510125033 65 0 0.0 1.0 0.00 0.02 0.00 92 1012.3
20260510124542 65 0 0.0 1.0 0.00 0.02 0.00 91 1012.4
20260510124037 64 0 0.0 0.0 0.00 0.02 0.00 91 1012.5
20260510123530 64 0 0.0 1.0 0.00 0.02 0.00 91 1012.4
20260510123053 64 0 0.0 1.0 0.00 0.02 0.00 91 1012.5
20260510122532 64 0 0.0 1.0 0.00 0.02 0.00 91 1012.5
20260510122030 64 0 0.0 2.0 0.00 0.02 0.00 90 1012.5
20260510121549 64 0 0.0 2.0 0.00 0.02 0.00 91 1012.3
20260510121034 64 0 1.0 3.0 0.00 0.02 0.00 91 1012.2
20260510120531 65 0 0.0 3.0 0.00 0.02 0.00 90 1012.2
20260510120046 65 307 1.0 3.0 0.00 0.02 0.00 90 1012.2
20260510115531 65 307 0.0 2.0 0.00 0.02 0.00 90 1012.2
20260510115032 65 176 0.0 3.0 0.00 0.02 0.00 90 1012.3
20260510114546 65 43 1.0 3.0 0.00 0.02 0.00 90 1012.2
20260510114034 65 126 0.0 3.0 0.00 0.02 0.00 90 1012.2
20260510113533 65 0 0.0 3.0 0.00 0.02 0.00 90 1012.0
20260510113052 64 154 0.0 2.0 0.00 0.02 0.00 89 1012.0
20260510112531 64 154 0.0 2.0 0.00 0.02 0.00 89 1012.1
20260510112032 64 154 0.0 3.0 0.00 0.02 0.00 89 1012.0
20260510111545 64 154 1.0 3.0 0.00 0.02 0.00 89 1012.0
20260510111030 64 154 1.0 3.0 0.00 0.02 0.00 88 1012.0
20260510110536 64 52 1.0 2.0 0.00 0.02 0.00 88 1012.1
20260510110047 65 52 0.0 2.0 0.00 0.02 0.00 88 1012.0
20260510105531 65 0 0.0 2.0 0.00 0.02 0.00 88 1012.0
20260510105034 65 52 0.0 2.0 0.00 0.02 0.00 88 1012.0
20260510104547 65 0 0.0 3.0 0.00 0.02 0.00 88 1012.0
20260510104030 65 0 1.0 3.0 0.00 0.02 0.00 88 1012.2
20260510103530 65 52 1.0 2.0 0.00 0.02 0.00 88 1012.1
20260510103049 65 0 0.0 2.0 0.00 0.02 0.00 88 1011.9
20260510102533 66 33 0.0 2.0 0.00 0.02 0.00 88 1012.1
20260510102031 66 0 0.0 2.0 0.00 0.02 0.00 88 1012.0
20260510101555 66 0 0.0 1.0 0.00 0.02 0.00 88 1012.1
20260510101031 66 0 0.0 2.0 0.00 0.02 0.00 88 1012.0
20260510100535 66 0 0.0 4.0 0.00 0.02 0.00 88 1011.9
20260510100043 66 33 1.0 4.0 0.00 0.02 0.00 88 1011.9
20260510095531 66 36 2.0 4.0 0.00 0.02 0.00 88 1011.9
20260510095030 67 0 0.0 2.0 0.00 0.02 0.00 88 1011.9
20260510094551 67 149 1.0 4.0 0.00 0.02 0.00 88 1011.9
20260510094031 67 149 1.0 4.0 0.00 0.02 0.00 88 1011.7
20260510093534 67 149 1.0 4.0 0.00 0.02 0.00 88 1011.7
20260510093048 67 149 2.0 5.0 0.00 0.02 0.00 88 1011.6
20260510092534 67 149 1.0 5.0 0.00 0.02 0.00 87 1011.6
20260510092031 67 149 2.0 6.0 0.00 0.02 0.00 86 1011.6
20260510091548 67 170 2.0 6.0 0.00 0.02 0.00 86 1011.5
20260510091030 67 175 2.0 4.0 0.00 0.02 0.00 85 1011.5
20260510090531 67 210 2.0 4.0 0.00 0.02 0.00 85 1011.5
20260510090056 67 210 2.0 4.0 0.00 0.02 0.00 85 1011.5
20260510085533 67 141 1.0 4.0 0.00 0.02 0.00 85 1011.5
20260510085033 67 0 0.0 2.0 0.00 0.02 0.00 84 1011.5
20260510084545 67 141 0.0 2.0 0.00 0.02 0.00 84 1011.6
20260510084034 68 141 1.0 2.0 0.00 0.02 0.00 84 1011.5
20260510083530 68 141 1.0 2.0 0.00 0.02 0.00 84 1011.5
20260510083048 68 141 1.0 2.0 0.00 0.02 0.00 84 1011.5
20260510082534 68 141 0.0 2.0 0.00 0.02 0.00 83 1011.6
20260510082034 68 141 0.0 1.0 0.00 0.02 0.00 83 1011.5
20260510081546 69 0 0.0 1.0 0.00 0.02 0.00 82 1011.5
20260510081034 69 0 0.0 2.0 0.00 0.02 0.00 82 1011.5
20260510080534 69 0 0.0 2.0 0.00 0.02 0.00 82 1011.5
20260510080059 69 141 1.0 2.0 0.00 0.02 0.00 81 1011.4
20260510075533 70 141 0.0 2.0 0.00 0.02 0.00 81 1011.5
20260510075031 70 0 0.0 2.0 0.00 0.02 0.00 80 1011.5
20260510074551 70 0 0.0 2.0 0.00 0.02 0.00 80 1011.6
20260510074033 71 0 1.0 2.0 0.00 0.02 0.00 80 1011.5
20260510073536 71 141 0.0 2.0 0.00 0.02 0.00 79 1011.5
20260510073108 71 0 0.0 1.0 0.00 0.02 0.00 79 1011.5
20260510072533 72 0 0.0 3.0 0.00 0.02 0.00 79 1011.6
20260510072035 72 141 0.0 4.0 0.00 0.02 0.00 78 1011.6
20260510071546 72 141 1.0 4.0 0.00 0.02 0.00 78 1011.6
20260510071030 73 0 0.0 0.0 0.00 0.02 0.00 78 1011.8
20260510070530 73 0 0.0 2.0 0.00 0.02 0.00 78 1011.7
20260510070056 73 0 0.0 3.0 0.00 0.02 0.00 78 1011.7
20260510065531 73 0 0.0 4.0 0.00 0.02 0.00 78 1011.8
20260510065030 73 141 1.0 6.0 0.00 0.02 0.00 78 1011.7
20260510064619 73 141 2.0 6.0 0.00 0.02 0.00 78 1011.8
20260510064033 74 139 3.0 6.0 0.00 0.02 0.00 77 1011.8
20260510063534 74 140 4.0 7.0 0.00 0.02 0.00 77 1011.8
20260510063048 74 155 4.0 7.0 0.00 0.02 0.00 77 1011.8
20260510062531 74 161 3.0 8.0 0.00 0.02 0.00 77 1011.7
20260510062033 74 152 3.0 9.0 0.00 0.02 0.00 77 1011.7
20260510061548 74 153 5.0 9.0 0.00 0.02 0.00 77 1011.8
20260510061037 75 162 4.0 7.0 0.00 0.02 0.00 77 1011.7
20260510060539 75 169 3.0 8.0 0.00 0.02 0.00 76 1011.8
20260510060046 75 170 3.0 9.0 0.00 0.02 0.00 76 1011.7
20260510055533 75 193 5.0 14.0 0.00 0.02 0.00 76 1011.6
20260510055036 75 161 4.0 14.0 0.00 0.02 0.00 76 1011.6
20260510054546 75 173 6.0 11.0 0.00 0.02 0.00 76 1011.5
20260510054034 75 149 5.0 11.0 0.00 0.02 0.00 76 1011.5
20260510053530 75 174 6.0 11.0 0.00 0.02 0.00 75 1011.3
20260510053050 75 151 7.0 12.0 0.00 0.02 0.00 75 1011.3
20260510052538 76 170 5.0 12.0 0.00 0.02 0.00 75 1011.2
20260510052035 76 152 6.0 12.0 0.00 0.02 0.00 74 1011.2
20260510051552 76 164 6.0 15.0 0.00 0.02 0.00 74 1011.2
20260510051036 76 164 7.0 16.0 0.00 0.02 0.00 74 1011.1
20260510050533 76 138 6.0 16.0 0.00 0.02 0.00 74 1011.1
20260510050058 76 173 5.0 13.0 0.00 0.02 0.00 74 1011.1
20260510045537 76 155 6.0 13.0 0.00 0.02 0.02 75 1011.0
20260510045034 76 164 7.0 11.0 0.00 0.02 0.02 75 1011.0
20260510044552 76 151 5.0 9.0 0.00 0.02 0.02 75 1011.0
20260510044033 76 170 4.0 10.0 0.00 0.02 0.02 75 1011.0
20260510043533 76 170 5.0 10.0 0.00 0.02 0.02 75 1011.1
20260510043047 76 158 5.0 9.0 0.00 0.02 0.02 75 1011.1
20260510042539 76 137 4.0 8.0 0.00 0.02 0.02 75 1011.1
20260510042036 76 155 4.0 7.0 0.00 0.02 0.02 75 1011.0
20260510041555 76 150 3.0 7.0 0.00 0.02 0.02 75 1011.0
20260510041034 76 169 2.0 7.0 0.00 0.02 0.02 75 1011.0
20260510040534 77 146 3.0 8.0 0.00 0.02 0.02 75 1011.1
20260510040053 77 153 3.0 8.0 0.00 0.02 0.02 74 1011.0
20260510035533 77 172 4.0 8.0 0.00 0.02 0.02 74 1010.9
20260510035036 77 149 3.0 7.0 0.00 0.02 0.02 74 1011.0
20260510034609 77 161 4.0 8.0 0.00 0.02 0.02 74 1011.0
20260510034034 77 176 4.0 8.0 0.00 0.02 0.02 74 1010.9
20260510033536 77 153 3.0 6.0 0.00 0.02 0.02 74 1010.8
20260510033052 77 147 3.0 6.0 0.00 0.02 0.02 74 1010.8
20260510032533 77 152 3.0 6.0 0.00 0.02 0.02 74 1010.7
20260510032034 77 178 3.0 6.0 0.00 0.02 0.02 73 1010.6
20260510031547 78 156 3.0 6.0 0.00 0.02 0.02 73 1010.6
20260510031034 78 178 3.0 6.0 0.00 0.02 0.02 73 1010.5
20260510030533 78 158 3.0 6.0 0.00 0.02 0.02 73 1010.5
20260510030046 78 161 3.0 6.0 0.00 0.02 0.02 73 1010.4
20260510025536 78 153 3.0 6.0 0.00 0.02 0.02 72 1010.4
20260510025034 78 178 3.0 7.0 0.00 0.02 0.02 72 1010.3
20260510024545 78 155 3.0 7.0 0.00 0.02 0.02 72 1010.3
20260510024037 78 172 4.0 6.0 0.00 0.02 0.02 71 1010.3
20260510023534 78 174 3.0 6.0 0.00 0.02 0.02 71 1010.2
20260510023049 78 139 3.0 6.0 0.00 0.02 0.02 70 1010.2
20260510022534 79 158 3.0 6.0 0.00 0.02 0.02 69 1010.1
20260510022034 79 172 2.0 4.0 0.00 0.02 0.02 69 1010.1
20260510021558 79 172 2.0 3.0 0.00 0.02 0.02 69 1010.0
20260510021033 80 172 1.0 3.0 0.00 0.02 0.02 68 1009.9
20260510020533 80 172 1.0 3.0 0.00 0.02 0.02 67 1009.8
20260510020047 81 172 2.0 4.0 0.00 0.02 0.02 65 1009.7
20260510015534 81 172 2.0 4.0 0.00 0.02 0.02 64 1009.6
20260510015033 81 198 2.0 4.0 0.00 0.02 0.02 64 1009.4
20260510014552 82 183 2.0 6.0 0.00 0.02 0.02 64 1009.3
20260510014033 82 181 2.0 6.0 0.00 0.02 0.02 63 1009.2
20260510013533 82 185 3.0 6.0 0.00 0.02 0.02 63 1009.1
20260510013046 83 182 3.0 6.0 0.00 0.02 0.02 63 1009.0
20260510012533 83 187 3.0 5.0 0.00 0.02 0.02 62 1008.9
20260510012034 83 187 2.0 5.0 0.00 0.02 0.02 62 1008.8
20260510011555 84 181 3.0 5.0 0.00 0.02 0.02 62 1008.7
20260510011035 84 176 3.0 6.0 0.00 0.02 0.02 61 1008.6
20260510010536 84 178 3.0 6.0 0.00 0.02 0.02 61 1008.6
20260510010049 85 182 2.0 7.0 0.00 0.02 0.02 61 1008.4
20260510005534 85 172 3.0 7.0 0.00 0.02 0.02 60 1008.5
20260510005033 85 178 3.0 7.0 0.00 0.02 0.02 60 1008.4
20260510004551 85 190 3.0 7.0 0.00 0.02 0.02 59 1008.3
20260510004033 86 186 3.0 7.0 0.00 0.02 0.02 59 1008.4
20260510003534 86 201 3.0 7.0 0.00 0.02 0.02 59 1008.4
20260510003102 86 194 3.0 9.0 0.00 0.02 0.02 59 1008.3
20260510002534 86 185 5.0 10.0 0.00 0.02 0.02 58 1008.4
20260510002034 86 187 5.0 10.0 0.00 0.02 0.02 57 1008.4
20260510001552 86 155 4.0 7.0 0.00 0.02 0.02 55 1008.4
20260510001033 87 141 3.0 8.0 0.00 0.02 0.02 55 1008.3
20260510000532 87 160 4.0 8.0 0.00 0.02 0.02 54 1008.4
20260510000053 87 134 4.0 7.0 0.00 0.02 0.02 52 1008.4
20260509235535 88 166 2.0 10.0 0.00 0.02 0.02 53 1008.5
20260509235033 88 174 4.0 10.0 0.00 0.02 0.02 54 1008.5
20260509234551 88 126 3.0 6.0 0.00 0.02 0.02 54 1008.4
20260509234034 88 189 1.0 6.0 0.00 0.02 0.02 52 1008.4
20260509233534 88 230 2.0 8.0 0.00 0.02 0.02 51 1008.3
20260509233050 88 172 5.0 8.0 0.00 0.02 0.02 53 1008.4
20260509232536 88 165 2.0 6.0 0.00 0.02 0.02 51 1008.4
20260509232033 88 152 1.0 8.0 0.00 0.02 0.02 53 1008.4
20260509231547 88 228 3.0 8.0 0.00 0.02 0.02 51 1008.3
20260509231033 89 26 0.0 4.0 0.00 0.02 0.02 52 1008.3
20260509230534 89 82 1.0 4.0 0.00 0.02 0.02 51 1008.3
20260509230049 89 47 2.0 6.0 0.00 0.02 0.02 50 1008.3
20260509225534 89 149 3.0 6.0 0.00 0.02 0.02 50 1008.2
20260509225033 89 150 1.0 7.0 0.00 0.02 0.02 47 1008.2
20260509224545 89 160 3.0 7.0 0.00 0.02 0.02 48 1008.3
20260509224034 89 174 2.0 7.0 0.00 0.02 0.02 53 1008.3
20260509223534 89 224 2.0 7.0 0.00 0.02 0.02 48 1008.3
20260509223046 89 251 2.0 7.0 0.00 0.02 0.02 50 1008.4
20260509222533 89 152 1.0 9.0 0.00 0.02 0.02 52 1008.4
20260509222035 89 241 2.0 9.0 0.00 0.02 0.02 50 1008.3
20260509221548 89 245 5.0 9.0 0.00 0.02 0.02 51 1008.4
20260509221034 89 181 4.0 9.0 0.00 0.02 0.02 51 1008.3
20260509220533 89 114 1.0 7.0 0.00 0.02 0.02 49 1008.4
20260509220045 89 217 3.0 9.0 0.00 0.02 0.02 50 1008.5
20260509215534 89 305 4.0 9.0 0.00 0.02 0.02 50 1008.4
20260509215036 89 261 2.0 8.0 0.00 0.02 0.02 52 1008.5
20260509214600 89 253 0.0 6.0 0.00 0.02 0.02 50 1008.4
20260509214034 89 0 0.0 8.0 0.00 0.02 0.02 52 1008.4
20260509213534 90 286 4.0 8.0 0.00 0.02 0.02 51 1008.6
20260509213049 90 239 4.0 8.0 0.00 0.02 0.02 53 1008.7
20260509212536 89 286 2.0 7.0 0.00 0.02 0.02 54 1008.6
20260509212033 89 0 1.0 8.0 0.00 0.02 0.02 53 1008.7
20260509211549 89 257 3.0 10.0 0.00 0.02 0.02 50 1008.8
20260509211035 89 222 6.0 10.0 0.00 0.02 0.02 52 1008.9
20260509210534 89 248 4.0 10.0 0.00 0.02 0.02 50 1008.9
20260509210049 89 291 1.0 10.0 0.00 0.02 0.02 55 1009.0
20260509205534 89 209 5.0 10.0 0.00 0.02 0.02 56 1009.2
20260509205035 89 189 3.0 10.0 0.00 0.02 0.02 58 1009.2
20260509204546 89 169 5.0 10.0 0.00 0.02 0.02 54 1009.3
20260509204033 89 195 4.0 10.0 0.00 0.02 0.02 56 1009.5
20260509203534 89 320 4.0 11.0 0.00 0.02 0.02 58 1009.6
20260509203046 89 220 5.0 11.0 0.00 0.02 0.02 59 1009.6
20260509202536 88 216 3.0 10.0 0.00 0.02 0.02 61 1009.8
20260509202034 87 208 5.0 10.0 0.00 0.02 0.02 62 1009.8
20260509201548 86 208 4.0 12.0 0.00 0.02 0.02 61 1010.0
20260509201033 88 214 4.0 12.0 0.00 0.02 0.02 62 1010.0
20260509200534 87 264 5.0 12.0 0.00 0.02 0.02 60 1010.2
20260509200101 87 180 4.0 8.0 0.00 0.02 0.02 62 1010.2
20260509195534 85 216 3.0 9.0 0.00 0.02 0.02 64 1010.4
20260509195033 88 176 3.0 9.0 0.00 0.02 0.02 63 1010.5
20260509194552 87 230 3.0 9.0 0.00 0.02 0.02 61 1010.5
20260509194036 87 222 5.0 9.0 0.00 0.02 0.02 61 1010.6
20260509193534 87 249 4.0 12.0 0.00 0.02 0.02 65 1010.7
20260509193049 87 230 5.0 12.0 0.00 0.02 0.02 65 1010.7
20260509192537 87 240 2.0 9.0 0.00 0.02 0.02 61 1010.7
20260509192033 86 261 3.0 9.0 0.00 0.02 0.02 65 1010.7
20260509191547 87 273 3.0 10.0 0.00 0.02 0.02 65 1010.8
20260509191036 87 241 3.0 10.0 0.00 0.02 0.02 66 1010.8
20260509190530 86 284 5.0 12.0 0.00 0.02 0.02 65 1010.9
20260509190048 86 174 4.0 12.0 0.00 0.02 0.02 64 1010.9
20260509185532 86 237 7.0 10.0 0.00 0.02 0.02 64 1011.0
20260509185031 84 234 4.0 9.0 0.00 0.02 0.02 70 1011.0
20260509184548 83 212 4.0 10.0 0.00 0.02 0.02 71 1011.1
20260509184033 85 180 5.0 12.0 0.00 0.02 0.02 67 1011.1
20260509183531 84 168 6.0 12.0 0.00 0.02 0.02 69 1011.1
20260509183103 84 245 4.0 13.0 0.00 0.02 0.02 72 1011.3
20260509182534 84 215 4.0 13.0 0.00 0.02 0.02 70 1011.3
20260509182034 84 224 7.0 13.0 0.00 0.02 0.02 71 1011.3
20260509181553 83 248 6.0 12.0 0.00 0.02 0.02 71 1011.4
20260509181033 84 225 7.0 12.0 0.00 0.02 0.02 70 1011.3
20260509180532 84 187 4.0 11.0 0.00 0.02 0.02 69 1011.5
20260509180055 84 257 7.0 12.0 0.00 0.02 0.02 71 1011.5
20260509175531 84 216 7.0 12.0 0.00 0.02 0.02 71 1011.4
20260509175031 83 216 5.0 10.0 0.00 0.02 0.02 77 1011.6
20260509174552 81 225 7.0 11.0 0.00 0.02 0.02 76 1011.6
20260509174034 81 212 5.0 11.0 0.00 0.02 0.02 75 1011.8
20260509173532 82 226 7.0 12.0 0.00 0.02 0.02 73 1011.8
20260509173052 83 236 6.0 13.0 0.00 0.02 0.02 74 1011.9
20260509172531 81 212 7.0 13.0 0.00 0.02 0.02 76 1011.9
20260509172033 82 236 7.0 13.0 0.00 0.02 0.02 74 1011.8
20260509171547 82 174 5.0 14.0 0.00 0.02 0.02 77 1011.8
20260509171033 82 178 8.0 14.0 0.00 0.02 0.02 74 1011.7
20260509170533 81 249 6.0 16.0 0.00 0.02 0.02 77 1011.6
20260509170047 81 211 9.0 16.0 0.00 0.02 0.02 77 1011.7
20260509165533 81 188 10.0 16.0 0.00 0.02 0.02 78 1011.6
20260509165033 81 190 10.0 17.0 0.00 0.02 0.02 77 1011.6
20260509164545 80 247 9.0 17.0 0.00 0.02 0.02 77 1011.6
20260509164033 80 205 9.0 16.0 0.00 0.02 0.02 82 1011.8
20260509163535 80 217 6.0 13.0 0.00 0.02 0.02 78 1011.8
20260509163056 81 212 7.0 13.0 0.00 0.02 0.02 78 1011.8
20260509162533 81 191 7.0 13.0 0.00 0.02 0.02 80 1011.8
20260509162032 81 216 6.0 12.0 0.00 0.02 0.02 78 1012.0
20260509161548 81 259 6.0 12.0 0.00 0.02 0.02 82 1012.0
20260509161033 81 211 5.0 12.0 0.00 0.02 0.02 81 1012.0